Regional Weather Roundup
Issued by NWS

Home | Current Version | Previous Version | Graphics & Text | Print | Product List | Glossary Off
Versions: 1 2 3 4 5 6 7 8 9 10 11 12 13 14 15 16 17 18 19 20 21 22 23 24 25 26 27 28 29 30 31 32 33 34 35 36 37 38 39 40 41 42 43 44 45 46 47 48 49 50

000
ASUS43 KMKX 290711
RWRWI

WISCONSIN REGIONAL WEATHER ROUNDUP
NATIONAL WEATHER SERVICE MILWAUKEE/SULLIVAN WI
200 AM CDT FRI MAY 29 2015

NOTE: "FAIR" INDICATES FEW OR NO CLOUDS BELOW 12,000 FEET WITH NO
SIGNIFICANT WEATHER AND/OR OBSTRUCTIONS TO VISIBILITY.

WIZ001-002-006>008-014>016-023>028-290800-
NORTHWEST WISCONSIN

CITY           SKY/WX    TMP DP  RH WIND       PRES   REMARKS
SUPERIOR ARPT  CLOUDY    41  41  99 CALM      29.91F
ASHLAND        MOCLDY    44  44 100 CALM      29.92F
HAYWARD        PTCLDY    67  53  61 S7        29.93F
SIREN          PTCLDY    65  54  65 S8        29.90F
CUMBERLAND     CLOUDY    63  54  72 S13       29.95F
RICE LAKE      DRIZZLE   65  56  73 SE9       29.98S
CHETEK         DRIZZLE   65  57  76 S7        29.97S
LADYSMITH      CLOUDY    65  55  68 S10       30.00S
EAU CLAIRE     LGT RAIN  65  59  81 S7        29.97F
MENOMONIE      DRIZZLE   64  60  86 SE6       29.97F
NEW RICHMOND   MOCLDY    67  55  66 SE9       29.93F
OSCEOLA        RAIN      67  56  69 SE6       29.94S
$$

WIZ003>005-009-010-017-018-290800-
NORTH CENTRAL WISCONSIN

CITY           SKY/WX    TMP DP  RH WIND       PRES   REMARKS
MANITOWISH WTR CLOUDY    61  55  80 S6        29.99F
ARBOR VITAE    CLOUDY    63  55  75 SE5       30.00F
WOODRUFF       CLOUDY    63  55  75 SE5       30.00F
RHINELANDER    MOCLDY    62  54  74 S5        30.03F
EAGLE RIVER    MOCLDY    61  52  73 CALM      30.01F
LAND O LAKES   MOCLDY    63  54  72 S7        30.02F
PHILLIPS       PTCLDY    64  54  70 S7        29.98F
TOMAHAWK       MOCLDY    56  54  91 CALM      30.02F
MEDFORD        CLOUDY    62  55  76 SE7       30.00F
MERRILL        CLOUDY    62  55  79 CALM      30.03F
$$

WIZ029-030-035-036-043>047-290800-
CENTRAL WISCONSIN

CITY           SKY/WX    TMP DP  RH WIND       PRES   REMARKS
WAUSAU         CLOUDY    65  55  70 S7        30.01F
MOSINEE        CLOUDY    63  55  77 SE6       30.03S
MARSHFIELD     CLOUDY    65  55  70 S8        30.01S
STEVENS POINT  CLOUDY    66  53  63 S6        30.03S
WAUPACA        CLOUDY    67  54  63 CALM      30.03F
WAUTOMA        CLOUDY    67  56  67 CALM      30.03F
WISC RAPIDS    CLOUDY    67  54  63 S3        30.02F
CAMP DOUGLAS   CLOUDY    66  61  82 S5        29.99F
$$

WIZ011>013-019>022-031-037>040-048>050-290800-
NORTHEAST WISCONSIN

CITY           SKY/WX    TMP DP  RH WIND       PRES   REMARKS
ANTIGO         MOCLDY    60  56  87 S8        30.04F
SHAWANO        CLOUDY    65  54  66 CALM      30.03F
OCONTO         MOCLDY    64  57  80 SE5       30.04S
STURGEON BAY   MOCLDY    61  52  72 S10       30.08F
GREEN BAY      CLOUDY    65  55  70 S7        30.04F
MANITOWOC      CLOUDY    60  55  83 S9        30.07F
APPLETON       CLOUDY    66  52  59 SE13      30.04F
CLINTONVILLE   CLOUDY    63  54  72 CALM      30.03F
OSHKOSH        CLOUDY    66  54  65 S7        30.03F
$$

WIZ032>034-041-042-053>061-290800-
SOUTHWEST WISCONSIN

CITY           SKY/WX    TMP DP  RH WIND       PRES   REMARKS
LA CROSSE      LGT RAIN  67  60  78 SE5       29.97S
SPARTA         LGT RAIN  62  58  88 CALM      29.99F
VIROQUA        CLOUDY    65  55  68 S7        30.01S
BOSCOBEL       LGT RAIN  63  60  90 CALM      30.01R
PRAIRIE DU CHI RAIN      65  59  80 CALM      30.00S
PLATTEVILLE    CLOUDY    65  59  81 CALM      30.03S
$$

WIZ056-057-062-063-064-067-068-290800-
SOUTH CENTRAL WISCONSIN

CITY           SKY/WX    TMP DP  RH WIND       PRES   REMARKS
REEDSBURG      CLOUDY    67  56  67 S6        30.00F
BARABOO/DELLS  CLOUDY    66  55  66 S6        30.02F
LONE ROCK      CLOUDY    67  57  70 CALM      30.01S
MINERAL POINT  LGT RAIN  64  54  68 S6        30.04R
MADISON        CLOUDY    69  54  58 S8        30.02F
MIDDLETON      CLOUDY    68  54  60 SE6       30.02F
WATERTOWN      CLOUDY   N/A N/A N/A SE5       30.03F
MONROE         CLOUDY    64  55  72 S7        30.03S
JANESVILLE     CLOUDY    66  55  68 SE3       30.02F
$$

WIZ051-052-058>065-066-070>072-290800-
SOUTHEAST WISCONSIN

CITY           SKY/WX    TMP DP  RH WIND       PRES   REMARKS
MILWAUKEE      MOCLDY    63  53  70 SE8       30.06F
WAUKESHA       MOCLDY    63  54  72 SE7       30.06F
MILWAUKEE/TIMM CLOUDY    64  52  63 SE6       30.06F
RACINE         MOCLDY    62  52  69 S7        30.07F
BURLINGTON     PTCLDY    58  53  86 CALM      30.05S
KENOSHA        PTCLDY    64  55  72 SE7       30.05F
FOND DU LAC    CLOUDY    66  55  67 S12       30.04F
SHEBOYGAN      CLOUDY    58  53  84 S5        30.07F
WEST BEND      CLOUDY    63  54  72 SE3       30.06F
JUNEAU         CLOUDY    65  55  69 SE9       30.05F
$$

LSZ147-162-290800-
LAKE SUPERIOR

STATION/POSITION TIME  TEMP    WIND        PRES    WAVE
                       AIR SEA DIR/SP/G            HT/PER
                 (UTC) (F)     (DEG/KT/KT) (MB)    (FT/S)
W MID LAKE BUOY  0650   38 37  250/  2/  2   N/A     1/ 4
DEVILS ISLAND    0700   41      40/  2/  2   N/A
PORT WING        0600   40     320/  3/  4   N/A
SAXON HARBOR     0600   46        CALM       N/A
$$

LMZ867-665-643>646-290800-
LAKE MICHIGAN

STATION/POSITION TIME  TEMP    WIND        PRES    WAVE
                       AIR SEA DIR/SP/G            HT/PER
                 (UTC) (F)     (DEG/KT/KT) (MB)    (FT/S)
CHAMBERS ISLAND  0640   61     170/  3/  6   N/A
N MID LAKE BUOY  0650   45 36  180/  2/  2   N/A     1/ 4
NORTHPORT PIER   0600   59     170/  7/ 11   N/A
SISTER BAY       0618   56     150/ 10/ 12   N/A
ALGOMA LAKESHORE 0523             CALM       N/A
KEWAUNEE LAKESHO 0600   49     160/  5/  6   N/A
SHEBOYGAN LAKESH 0700   57     190/  6/  7   N/A
PORT WASHINGTON  0640   56      CALM  /  2   N/A
ATWATER BUOY     0600   54     170/  6/  6   N/A
MILWAUKEE LAKESH 0600   57      90/  2/  3   N/A
S MID LAKE BUOY  0650   47 38  130/ 10/ 10   N/A     0
KENOSHA   LAKESH 0700   55     130/  3/  3   N/A
$$

TC  - TEMPERATURE IN CELSIUS
VSB - VISIBILITY IN STATUTE MILES
WCI - WIND CHILL INDEX
HX  - HEAT INDEX



USA.gov is the U.S. government's official web portal to all federal, state and local government web resources and services.